This demonstration page uses our WeatherBlox Daily Observations layout. Learn more.

41.55636, -103.73856

Hourly Observations for May 23, 2016

Temp ( °F °C ) Dew Point ( °F °C ) Humidity (%) Winds ( mph kmh ) Pressure ( in mb ) Visibility ( mi km ) Precip ( " mm )
12:53 am 00:53 Cloudy 50 10 43 6.1 77 77 Calm 29.76 1008 10 16.0934 0 0
1:53 am 01:53 Partly Cloudy 50 10 41 5 71 71 Calm 29.77 1008 10 16.0934 0 0
2:53 am 02:53 Mostly Cloudy 50 10 42 5.6 74 74 S 7 11 29.78 1009 10 16.0934 0 0
3:53 am 03:53 Mostly Clear 47 8.3 40 4.4 77 77 W 9 15 29.78 1008 10 16.0934 0 0
4:53 am 04:53 Clear 47 8.3 38 3.3 71 71 W 7 11 29.78 1009 10 16.0934 0 0
5:53 am 05:53 Sunny 47 8.3 37 2.8 69 69 WNW 14 22 29.82 1010 10 16.0934 0 0
6:53 am 06:53 Sunny 49 9.4 38 3.3 66 66 WNW 13 20 29.86 1011 10 16.0934 0 0
7:53 am 07:53 Sunny 54 12.2 38 3.3 55 55 W 15 24 29.85 1011 10 16.0934 0 0
8:53 am 08:53 Sunny 59 15 39 3.9 48 48 NW 17 28 29.82 1010 10 16.0934 0 0
10:53 am 10:53 Sunny 65 18.3 34 1.1 32 32 WNW 22 35 29.75 1007 10 16.0934 0 0
11:53 am 11:53 Sunny 67 19.4 35 1.7 31 31 WNW 15 24 29.75 1008 10 16.0934 0 0
12:53 pm 12:53 Sunny 70 21.1 36 2.2 29 29 WNW 15 24 29.74 1007 10 16.0934 0 0
1:53 pm 13:53 Mostly Cloudy 72 22.2 33 0.6 24 24 WNW 13 20 29.72 1007 10 16.0934 0 0
2:53 pm 14:53 Cloudy 67 19.4 33 0.6 28 28 WSW 16 26 29.73 1007 10 16.0934 0 0
3:10 pm 15:10 Cloudy with Light Rain 63 17 36 2 37 37 SSW 26 43 29.71 1006 9 14.48406 0 0
3:49 pm 15:49 Cloudy with Light Rain 57 14 43 6 59 59 SE 14 22 29.74 1007 9 14.48406 0.01 0.254
3:53 pm 15:53 Cloudy with Light Rain 60 15.6 40 4.4 47 47 S 18 30 29.78 1009 10 16.0934 0.02 0.508
4:00 pm 16:00 Cloudy with Light Rain 59 15 41 5 51 51 ESE 22 35 29.71 1006 10 16.0934 0 0
4:53 pm 16:53 Mostly Cloudy with Nearby Thunderstorms 60 15.6 42 5.6 52 52 S 8 13 29.8 1009 10 16.0934 0 0.0254
5:11 pm 17:11 Cloudy with Light Rain 60 15.6 39 3.9 46 46 SSW 14 22 29.77 1008 8 12.87472 0 0.0254
5:28 pm 17:28 Cloudy with Light Rain 57 14 43 6 59 59 SE 13 20 29.77 1008 10 16.0934 0 0
5:53 pm 17:53 Cloudy with Light Rain 56 13.3 43 6.1 62 62 SSE 20 31 29.84 1011 10 16.0934 0 0.0254
6:53 pm 18:53 Mostly Cloudy 55 12.8 46 7.8 72 72 ESE 14 22 29.82 1010 10 16.0934 0 0.0254
7:53 pm 19:53 Mostly Sunny 51 10.6 46 7.8 83 83 SE 14 22 29.81 1010 10 16.0934 0 0
8:53 pm 20:53 Clear 49 9.4 45 7.2 86 86 SSE 6 9 29.81 1010 10 16.0934 0 0
9:53 pm 21:53 Clear 46 7.8 43 6.1 89 89 NNE 7 11 29.83 1010 10 16.0934 0 0
10:53 pm 22:53 Clear 45 7.2 42 5.6 90 90 NE 5 7 29.83 1010 10 16.0934 0 0
11:53 pm 23:53 Clear 44 6.7 41 5 89 89 Calm 29.83 1010 10 16.0934 0 0

Powered by AerisWeather